Location: Stara Lesna
(49.1528°N, 20.2911°E)
Time: 03:44:55
(UTC+02:00)

CZ-4B R/B - Pass Details

Date: 13 July 2020
Orbit: 702 x 803 km, 98.9° (Epoch: 11 August)

Event Time Altitude Azimuth Distance (km) Brightness Sun altitude
Rises 03:18:36 0° 11° (NNE) 3,266 8.1 -11.2°
Reaches altitude 10° 03:20:59 10° 8° (N) 2,319 7.0 -11.0°
Maximum altitude 03:25:57 56° 291° (WNW) 894 3.8 -10.5°
Enters shadow 03:30:13 13° 216° (SW) 2,026 5.0 -10.1°
